TIB1041 SBBR-SBPA

Flight info

Callsign TIB1041
Flight time 2h 8m
Altitude 38000
Route KUKOL UZ5 BOLIP UZ96 ASDEK
Aircraft E190/M-SDE3GILORVW/S

Departure

Time 2026-04-26 22:59
Airport Presidente Juscelino Kubitschek International Airport (SBBR)

Arrival

Time 2026-04-27 01:07
Airport Porto Alegre-Salgado Filho International Airport (SBPA)
Time Latitude Longitude Altitude Speed Heading
2026-04-26 22:23 -15.87128 -47.91817 3487 ft 0 kts 176°
2026-04-26 22:45 -15.87113 -47.91818 3487 ft 2 kts 176°
2026-04-26 22:46 -15.87103 -47.91819 3488 ft 2 kts 170°
2026-04-26 22:46 -15.87089 -47.91824 3488 ft 2 kts 148°
2026-04-26 22:46 -15.87078 -47.91834 3488 ft 2 kts 128°
2026-04-26 22:46 -15.87070 -47.91848 3489 ft 2 kts 107°
2026-04-26 22:47 -15.87068 -47.91862 3489 ft 1 kts 88°
2026-04-26 22:47 -15.87068 -47.91866 3489 ft 0 kts 86°
2026-04-26 22:50 -15.87068 -47.91859 3489 ft 1 kts 86°
2026-04-26 22:51 -15.87067 -47.91842 3489 ft 3 kts 87°
2026-04-26 22:51 -15.87065 -47.91813 3488 ft 4 kts 84°
2026-04-26 22:51 -15.87060 -47.91772 3487 ft 6 kts 81°
2026-04-26 22:51 -15.87056 -47.91723 3487 ft 6 kts 87°
2026-04-26 22:52 -15.87083 -47.91684 3485 ft 8 kts 173°
2026-04-26 22:52 -15.87139 -47.91681 3484 ft 8 kts 177°
2026-04-26 22:52 -15.87200 -47.91676 3483 ft 9 kts 175°
2026-04-26 22:52 -15.87271 -47.91670 3482 ft 10 kts 176°
2026-04-26 22:53 -15.87351 -47.91665 3480 ft 12 kts 176°
2026-04-26 22:53 -15.87450 -47.91660 3476 ft 15 kts 175°
2026-04-26 22:53 -15.87568 -47.91652 3469 ft 18 kts 175°
2026-04-26 22:53 -15.87665 -47.91645 3462 ft 10 kts 175°
2026-04-26 22:54 -15.87737 -47.91607 3456 ft 14 kts 94°
2026-04-26 22:54 -15.87725 -47.91501 3454 ft 15 kts 89°
2026-04-26 22:54 -15.87718 -47.91381 3450 ft 17 kts 86°
2026-04-26 22:54 -15.87709 -47.91244 3446 ft 20 kts 86°
2026-04-26 22:55 -15.87702 -47.91121 3441 ft 15 kts 86°
2026-04-26 22:55 -15.87695 -47.91038 3438 ft 11 kts 86°
2026-04-26 22:55 -15.87721 -47.90954 3433 ft 15 kts 147°
2026-04-26 22:55 -15.87748 -47.90945 3430 ft 0 kts 174°
2026-04-26 22:57 -15.87761 -47.90943 3429 ft 5 kts 172°
2026-04-26 22:57 -15.87827 -47.90937 3422 ft 12 kts 176°
2026-04-26 22:57 -15.87872 -47.90946 3419 ft 7 kts 232°
2026-04-26 22:58 -15.87877 -47.90971 3420 ft 0 kts 272°
2026-04-26 22:58 -15.87876 -47.90992 3421 ft 14 kts 274°
2026-04-26 22:59 -15.87901 -47.91386 3438 ft 92 kts 268°
2026-04-26 22:59 -15.87956 -47.92298 3464 ft 156 kts 265°
2026-04-26 22:59 -15.88017 -47.93450 4028 ft 160 kts 261°
2026-04-26 22:59 -15.88422 -47.94520 4617 ft 168 kts 222°
2026-04-26 23:00 -15.89466 -47.95035 5080 ft 177 kts 181°
2026-04-26 23:00 -15.90766 -47.95031 5453 ft 198 kts 179°
2026-04-26 23:00 -15.92225 -47.95070 5995 ft 212 kts 181°
2026-04-26 23:00 -15.93721 -47.95158 6695 ft 216 kts 182°
2026-04-26 23:01 -15.95268 -47.95275 7146 ft 236 kts 183°
2026-04-26 23:01 -15.97064 -47.95432 7237 ft 273 kts 184°
2026-04-26 23:01 -15.99047 -47.95620 7699 ft 293 kts 184°
2026-04-26 23:01 -16.01108 -47.95821 8504 ft 298 kts 185°
2026-04-26 23:02 -16.03186 -47.96027 9442 ft 296 kts 185°
2026-04-26 23:02 -16.05209 -47.96228 9964 ft 295 kts 185°
2026-04-26 23:02 -16.07259 -47.96558 10014 ft 299 kts 200°
2026-04-26 23:02 -16.08991 -47.97778 10124 ft 311 kts 224°
2026-04-26 23:03 -16.10560 -47.99395 10752 ft 319 kts 224°
2026-04-26 23:03 -16.12124 -48.01015 11535 ft 321 kts 224°
2026-04-26 23:03 -16.13725 -48.02676 12230 ft 326 kts 224°
2026-04-26 23:03 -16.15345 -48.04357 12811 ft 334 kts 224°
2026-04-26 23:04 -16.17008 -48.06084 13448 ft 340 kts 224°
2026-04-26 23:04 -16.18694 -48.07836 14128 ft 344 kts 225°
2026-04-26 23:04 -16.20401 -48.09610 14826 ft 347 kts 225°
2026-04-26 23:04 -16.22102 -48.11379 15492 ft 350 kts 225°
2026-04-26 23:05 -16.23845 -48.13192 16139 ft 354 kts 225°
2026-04-26 23:05 -16.25596 -48.15013 16759 ft 357 kts 226°
2026-04-26 23:05 -16.27381 -48.16872 17075 ft 358 kts 226°
2026-04-26 23:05 -16.29266 -48.18834 17112 ft 360 kts 226°
2026-04-26 23:06 -16.31095 -48.20738 17122 ft 361 kts 226°
2026-04-26 23:06 -16.32901 -48.22619 17125 ft 360 kts 226°
2026-04-26 23:06 -16.34713 -48.24507 17126 ft 359 kts 226°
2026-04-26 23:06 -16.36492 -48.26360 17128 ft 359 kts 226°
2026-04-26 23:07 -16.38301 -48.28163 17120 ft 359 kts 217°
2026-04-26 23:07 -16.39753 -48.29075 17162 ft 367 kts 208°
2026-04-26 23:07 -16.42791 -48.30726 17809 ft 375 kts 208°
2026-04-26 23:07 -16.45103 -48.31974 18522 ft 373 kts 207°
2026-04-26 23:08 -16.47430 -48.33226 19206 ft 373 kts 207°
2026-04-26 23:08 -16.49722 -48.34460 19785 ft 374 kts 207°
2026-04-26 23:08 -16.52053 -48.35714 20288 ft 378 kts 207°
2026-04-26 23:08 -16.54423 -48.36990 20771 ft 383 kts 207°
2026-04-26 23:09 -16.56791 -48.38265 21248 ft 386 kts 207°
2026-04-26 23:09 -16.59200 -48.39562 21729 ft 389 kts 207°
2026-04-26 23:09 -16.61623 -48.40868 22212 ft 392 kts 207°
2026-04-26 23:09 -16.64043 -48.42171 22687 ft 395 kts 207°
2026-04-26 23:10 -16.66529 -48.43512 23135 ft 399 kts 207°
2026-04-26 23:10 -16.69060 -48.44666 23538 ft 402 kts 193°
2026-04-26 23:10 -16.71846 -48.45055 23957 ft 404 kts 184°
2026-04-26 23:10 -16.74664 -48.45302 24391 ft 407 kts 184°
2026-04-26 23:11 -16.77494 -48.45542 24815 ft 410 kts 184°
2026-04-26 23:11 -16.80366 -48.45782 25226 ft 413 kts 184°
2026-04-26 23:11 -16.83263 -48.46025 25637 ft 416 kts 184°
2026-04-26 23:11 -16.86155 -48.46266 26023 ft 419 kts 184°
2026-04-26 23:12 -16.89067 -48.46510 26422 ft 421 kts 184°
2026-04-26 23:12 -16.92026 -48.46757 26789 ft 424 kts 184°
2026-04-26 23:12 -16.94988 -48.47005 27145 ft 427 kts 184°
2026-04-26 23:12 -16.97972 -48.47254 27493 ft 431 kts 184°
2026-04-26 23:13 -17.00976 -48.47505 27836 ft 434 kts 184°
2026-04-26 23:13 -17.03966 -48.47755 28176 ft 436 kts 184°
2026-04-26 23:13 -17.07029 -48.48012 28534 ft 439 kts 184°
2026-04-26 23:13 -17.10095 -48.48268 28854 ft 442 kts 184°
2026-04-26 23:14 -17.13188 -48.48528 29187 ft 444 kts 184°
2026-04-26 23:14 -17.16334 -48.48791 29527 ft 446 kts 184°
2026-04-26 23:14 -17.19419 -48.49050 29842 ft 448 kts 184°
2026-04-26 23:14 -17.22547 -48.49312 30177 ft 449 kts 184°
2026-04-26 23:15 -17.25701 -48.49576 30488 ft 451 kts 185°
2026-04-26 23:15 -17.28826 -48.49839 30776 ft 453 kts 185°
2026-04-26 23:15 -17.31991 -48.50104 31050 ft 456 kts 185°
2026-04-26 23:15 -17.35177 -48.50372 31327 ft 458 kts 185°
2026-04-26 23:16 -17.38331 -48.50636 31609 ft 459 kts 185°
2026-04-26 23:16 -17.41557 -48.50907 31944 ft 459 kts 185°
2026-04-26 23:16 -17.44730 -48.51174 32312 ft 459 kts 185°
2026-04-26 23:16 -17.47922 -48.51442 32695 ft 457 kts 185°
2026-04-26 23:17 -17.51078 -48.51707 33117 ft 456 kts 185°
2026-04-26 23:17 -17.54266 -48.51976 33555 ft 454 kts 185°
2026-04-26 23:17 -17.57425 -48.52242 33992 ft 452 kts 186°
2026-04-26 23:17 -17.60565 -48.52506 34447 ft 450 kts 186°
2026-04-26 23:18 -17.63674 -48.52768 34900 ft 448 kts 186°
2026-04-26 23:18 -17.66781 -48.53030 35325 ft 447 kts 186°
2026-04-26 23:18 -17.69913 -48.53294 35744 ft 445 kts 186°
2026-04-26 23:18 -17.73040 -48.53566 36113 ft 445 kts 186°
2026-04-26 23:19 -17.76136 -48.53844 36459 ft 445 kts 186°
2026-04-26 23:19 -17.79235 -48.54121 36803 ft 444 kts 186°
2026-04-26 23:19 -17.82335 -48.54400 37145 ft 444 kts 186°
2026-04-26 23:19 -17.85427 -48.54676 37492 ft 443 kts 186°
2026-04-26 23:20 -17.88497 -48.54952 37843 ft 443 kts 186°
2026-04-26 23:20 -17.91589 -48.55229 38064 ft 440 kts 186°
2026-04-26 23:20 -17.94671 -48.55506 38079 ft 446 kts 186°
2026-04-26 23:21 -18.00953 -48.56070 38081 ft 459 kts 186°
2026-04-26 23:21 -18.07384 -48.56647 38074 ft 470 kts 186°
2026-04-26 23:22 -18.13964 -48.57239 38063 ft 470 kts 186°
2026-04-26 23:22 -18.20469 -48.57824 38063 ft 469 kts 186°
2026-04-26 23:23 -18.27035 -48.58415 38064 ft 470 kts 186°
2026-04-26 23:23 -18.33581 -48.59005 38072 ft 470 kts 186°
2026-04-26 23:24 -18.40094 -48.59592 38082 ft 470 kts 186°
2026-04-26 23:24 -18.46632 -48.60183 38097 ft 470 kts 186°
2026-04-26 23:25 -18.53167 -48.60773 38102 ft 471 kts 187°
2026-04-26 23:25 -18.59727 -48.61366 38093 ft 471 kts 187°
2026-04-26 23:26 -18.66253 -48.61956 38090 ft 471 kts 187°
2026-04-26 23:26 -18.72839 -48.62552 38075 ft 471 kts 187°
2026-04-26 23:27 -18.79359 -48.63143 38072 ft 472 kts 187°
2026-04-26 23:27 -18.85940 -48.63739 38076 ft 472 kts 187°
2026-04-26 23:28 -18.92519 -48.64336 38068 ft 472 kts 187°
2026-04-26 23:28 -18.99056 -48.64930 38079 ft 472 kts 187°
2026-04-26 23:29 -19.05643 -48.65528 38084 ft 472 kts 187°
2026-04-26 23:29 -19.12207 -48.66125 38066 ft 473 kts 187°
2026-04-26 23:30 -19.18781 -48.66742 38070 ft 474 kts 188°
2026-04-26 23:30 -19.25343 -48.67425 38066 ft 474 kts 188°
2026-04-26 23:31 -19.31912 -48.68105 38060 ft 473 kts 188°
2026-04-26 23:31 -19.38502 -48.68789 38060 ft 473 kts 188°
2026-04-26 23:32 -19.45091 -48.69472 38053 ft 474 kts 188°
2026-04-26 23:32 -19.51659 -48.70155 38058 ft 474 kts 188°
2026-04-26 23:33 -19.58244 -48.70839 38054 ft 475 kts 188°
2026-04-26 23:33 -19.64851 -48.71526 38044 ft 475 kts 188°
2026-04-26 23:34 -19.71445 -48.72213 38040 ft 475 kts 188°
2026-04-26 23:34 -19.78064 -48.72902 38030 ft 476 kts 188°
2026-04-26 23:35 -19.84676 -48.73592 38027 ft 476 kts 188°
2026-04-26 23:35 -19.91293 -48.74283 38020 ft 476 kts 188°
2026-04-26 23:36 -19.97943 -48.74977 38016 ft 478 kts 189°
2026-04-26 23:36 -20.04612 -48.75674 38013 ft 477 kts 189°
2026-04-26 23:37 -20.10947 -48.76337 38010 ft 476 kts 189°
2026-04-26 23:37 -20.17737 -48.77049 38009 ft 476 kts 189°
2026-04-26 23:38 -20.24347 -48.77741 38001 ft 475 kts 189°
2026-04-26 23:38 -20.30998 -48.78438 38002 ft 476 kts 189°
2026-04-26 23:39 -20.37628 -48.79131 38004 ft 477 kts 189°
2026-04-26 23:39 -20.44277 -48.79827 38004 ft 475 kts 189°
2026-04-26 23:40 -20.50888 -48.80519 38004 ft 475 kts 189°
2026-04-26 23:40 -20.57500 -48.81213 38006 ft 476 kts 189°
2026-04-26 23:41 -20.64139 -48.81910 38007 ft 476 kts 189°
2026-04-26 23:41 -20.70716 -48.82728 38015 ft 474 kts 193°
2026-04-26 23:42 -20.77298 -48.83791 38008 ft 474 kts 192°
2026-04-26 23:42 -20.87089 -48.85350 38012 ft 474 kts 192°
2026-04-26 23:43 -20.93631 -48.86393 38013 ft 475 kts 192°
2026-04-26 23:43 -21.00213 -48.87442 38010 ft 474 kts 192°
2026-04-26 23:44 -21.06776 -48.88489 38022 ft 474 kts 192°
2026-04-26 23:44 -21.13259 -48.89525 38022 ft 473 kts 192°
2026-04-26 23:45 -21.18623 -48.90382 38025 ft 473 kts 192°
2026-04-26 23:45 -21.26251 -48.91603 38024 ft 472 kts 192°
2026-04-26 23:46 -21.32769 -48.92647 38015 ft 472 kts 193°
2026-04-26 23:46 -21.39318 -48.93697 38006 ft 471 kts 193°
2026-04-26 23:47 -21.45813 -48.94739 38000 ft 472 kts 193°
2026-04-26 23:47 -21.52350 -48.95789 38000 ft 473 kts 193°
2026-04-26 23:48 -21.58885 -48.96840 38002 ft 471 kts 193°
2026-04-26 23:48 -21.65363 -48.97882 37993 ft 471 kts 193°
2026-04-26 23:49 -21.71774 -48.99427 37994 ft 467 kts 198°
2026-04-26 23:49 -21.78136 -49.01001 37994 ft 467 kts 198°
2026-04-26 23:50 -21.84483 -49.02563 37995 ft 467 kts 198°
2026-04-26 23:50 -21.90838 -49.04127 37996 ft 467 kts 197°
2026-04-26 23:51 -21.97181 -49.05690 37998 ft 466 kts 198°
2026-04-26 23:51 -22.03562 -49.07265 37999 ft 466 kts 198°
2026-04-26 23:52 -22.09930 -49.08837 38005 ft 466 kts 198°
2026-04-26 23:52 -22.16228 -49.10393 38001 ft 466 kts 198°
2026-04-26 23:53 -22.22549 -49.11958 38007 ft 467 kts 198°
2026-04-26 23:53 -22.28872 -49.13523 38017 ft 466 kts 198°
2026-04-26 23:54 -22.35223 -49.15097 38021 ft 465 kts 198°
2026-04-26 23:54 -22.41534 -49.16729 38016 ft 465 kts 200°
2026-04-26 23:55 -22.47799 -49.18520 38018 ft 464 kts 200°
2026-04-26 23:55 -22.54081 -49.20309 38020 ft 464 kts 200°
2026-04-26 23:56 -22.60355 -49.22060 38021 ft 465 kts 199°
2026-04-26 23:56 -22.66615 -49.23775 38020 ft 465 kts 199°
2026-04-26 23:57 -22.72909 -49.25503 38022 ft 465 kts 199°
2026-04-26 23:57 -22.79192 -49.27229 38025 ft 464 kts 199°
2026-04-26 23:58 -22.85452 -49.28951 38031 ft 463 kts 199°
2026-04-26 23:58 -22.91701 -49.30670 38032 ft 464 kts 199°
2026-04-26 23:59 -22.98009 -49.32406 38050 ft 464 kts 199°
2026-04-26 23:59 -23.04258 -49.34125 38040 ft 463 kts 199°
2026-04-27 00:00 -23.10539 -49.35856 38033 ft 462 kts 199°
2026-04-27 00:00 -23.16789 -49.37580 38024 ft 462 kts 199°
2026-04-27 00:01 -23.23019 -49.39250 38021 ft 463 kts 198°
2026-04-27 00:01 -23.29349 -49.40785 38015 ft 464 kts 198°
2026-04-27 00:02 -23.35666 -49.42327 38018 ft 463 kts 198°
2026-04-27 00:02 -23.41953 -49.43863 38029 ft 461 kts 198°
2026-04-27 00:03 -23.48105 -49.45729 38031 ft 457 kts 202°
2026-04-27 00:03 -23.54246 -49.47653 38035 ft 458 kts 202°
2026-04-27 00:04 -23.60361 -49.49564 38034 ft 456 kts 202°
2026-04-27 00:04 -23.66518 -49.51385 38039 ft 458 kts 200°
2026-04-27 00:05 -23.72712 -49.53111 38042 ft 458 kts 200°
2026-04-27 00:05 -23.78882 -49.54835 38043 ft 457 kts 200°
2026-04-27 00:06 -23.84952 -49.56531 38044 ft 456 kts 200°
2026-04-27 00:06 -23.91100 -49.58252 38041 ft 455 kts 200°
2026-04-27 00:07 -23.97240 -49.59972 38037 ft 456 kts 200°
2026-04-27 00:07 -24.03377 -49.61693 38032 ft 456 kts 200°
2026-04-27 00:08 -24.09559 -49.63390 38047 ft 458 kts 199°
2026-04-27 00:08 -24.15776 -49.64985 38049 ft 458 kts 199°
2026-04-27 00:09 -24.22026 -49.66595 38077 ft 458 kts 200°
2026-04-27 00:09 -24.28264 -49.68205 38084 ft 459 kts 200°
2026-04-27 00:10 -24.34450 -49.69802 38090 ft 458 kts 200°
2026-04-27 00:10 -24.40684 -49.71414 38095 ft 457 kts 200°
2026-04-27 00:11 -24.46752 -49.73058 38097 ft 456 kts 202°
2026-04-27 00:11 -24.52850 -49.74952 38112 ft 457 kts 202°
2026-04-27 00:12 -24.58855 -49.76804 38107 ft 457 kts 202°
2026-04-27 00:12 -24.65047 -49.78714 38103 ft 456 kts 202°
2026-04-27 00:13 -24.71076 -49.80576 38105 ft 457 kts 202°
2026-04-27 00:13 -24.77233 -49.82480 38096 ft 458 kts 202°
2026-04-27 00:14 -24.83120 -49.84532 38098 ft 454 kts 206°
2026-04-27 00:14 -24.89149 -49.86837 38087 ft 455 kts 206°
2026-04-27 00:15 -24.95085 -49.89096 38086 ft 456 kts 206°
2026-04-27 00:15 -25.01082 -49.91379 38079 ft 455 kts 206°
2026-04-27 00:16 -25.07095 -49.93670 38074 ft 456 kts 206°
2026-04-27 00:16 -25.11876 -49.95495 38067 ft 457 kts 206°
2026-04-27 00:17 -25.15132 -49.96737 38072 ft 455 kts 206°
2026-04-27 00:17 -25.21057 -49.99003 38071 ft 455 kts 206°
2026-04-27 00:18 -25.27081 -50.01313 38070 ft 455 kts 206°
2026-04-27 00:18 -25.33112 -50.03625 38071 ft 454 kts 206°
2026-04-27 00:19 -25.39096 -50.05919 38066 ft 454 kts 206°
2026-04-27 00:19 -25.45112 -50.08230 38068 ft 455 kts 206°
2026-04-27 00:20 -25.51092 -50.10528 38066 ft 455 kts 206°
2026-04-27 00:20 -25.57117 -50.12846 38066 ft 457 kts 207°
2026-04-27 00:21 -25.63115 -50.15160 38065 ft 456 kts 207°
2026-04-27 00:21 -25.69104 -50.17472 38062 ft 456 kts 207°
2026-04-27 00:22 -25.75082 -50.19783 38059 ft 453 kts 207°
2026-04-27 00:22 -25.81083 -50.22104 38057 ft 453 kts 207°
2026-04-27 00:23 -25.87048 -50.24416 38057 ft 456 kts 207°
2026-04-27 00:23 -25.93077 -50.26751 38055 ft 455 kts 207°
2026-04-27 00:24 -25.99048 -50.29068 38053 ft 456 kts 207°
2026-04-27 00:24 -26.05094 -50.31416 38055 ft 453 kts 207°
2026-04-27 00:25 -26.10832 -50.33647 38053 ft 455 kts 207°
2026-04-27 00:25 -26.16808 -50.35973 38044 ft 453 kts 208°
2026-04-27 00:26 -26.22693 -50.38266 38045 ft 456 kts 208°
2026-04-27 00:26 -26.28585 -50.40564 38042 ft 452 kts 208°
2026-04-27 00:27 -26.34594 -50.42911 38043 ft 453 kts 208°
2026-04-27 00:27 -26.40508 -50.45222 38041 ft 453 kts 208°
2026-04-27 00:28 -26.46477 -50.47558 38047 ft 452 kts 208°
2026-04-27 00:28 -26.52408 -50.49881 38049 ft 452 kts 208°
2026-04-27 00:29 -26.58343 -50.52210 38047 ft 452 kts 208°
2026-04-27 00:29 -26.64269 -50.54536 38057 ft 453 kts 208°
2026-04-27 00:30 -26.70231 -50.56877 38055 ft 451 kts 208°
2026-04-27 00:30 -26.76171 -50.59213 38063 ft 453 kts 209°
2026-04-27 00:31 -26.82125 -50.61558 38055 ft 452 kts 209°
2026-04-27 00:31 -26.88090 -50.63911 38049 ft 451 kts 209°
2026-04-27 00:32 -26.93983 -50.66238 38059 ft 448 kts 210°
2026-04-27 00:32 -26.99892 -50.68574 38050 ft 449 kts 210°
2026-04-27 00:33 -27.05745 -50.70891 38048 ft 448 kts 210°
2026-04-27 00:33 -27.11660 -50.73235 38040 ft 446 kts 210°
2026-04-27 00:34 -27.17568 -50.75579 38039 ft 449 kts 210°
2026-04-27 00:34 -27.23389 -50.77889 38036 ft 446 kts 210°
2026-04-27 00:35 -27.29306 -50.80240 38035 ft 448 kts 210°
2026-04-27 00:35 -27.35132 -50.82557 38046 ft 445 kts 210°
2026-04-27 00:36 -27.40954 -50.84877 38048 ft 444 kts 210°
2026-04-27 00:36 -27.46778 -50.87201 38050 ft 446 kts 210°
2026-04-27 00:37 -27.52669 -50.89555 38051 ft 449 kts 211°
2026-04-27 00:37 -27.58531 -50.91897 38045 ft 441 kts 211°
2026-04-27 00:38 -27.61403 -50.93043 38034 ft 426 kts 211°
2026-04-27 00:38 -27.63265 -50.93792 38048 ft 424 kts 211°
2026-04-27 00:38 -27.69751 -50.96394 37768 ft 429 kts 211°
2026-04-27 00:39 -27.72620 -50.97545 37295 ft 431 kts 211°
2026-04-27 00:39 -27.75393 -50.98657 36821 ft 428 kts 211°
2026-04-27 00:39 -27.78180 -50.99776 36346 ft 427 kts 212°
2026-04-27 00:39 -27.80994 -51.00907 35877 ft 426 kts 212°
2026-04-27 00:40 -27.83780 -51.02028 35413 ft 430 kts 212°
2026-04-27 00:40 -27.86593 -51.03160 34927 ft 433 kts 211°
2026-04-27 00:40 -27.89446 -51.04308 34447 ft 436 kts 211°
2026-04-27 00:40 -27.92331 -51.05470 33960 ft 436 kts 211°
2026-04-27 00:41 -27.95164 -51.06611 33482 ft 436 kts 212°
2026-04-27 00:41 -27.98023 -51.07763 33002 ft 435 kts 211°
2026-04-27 00:41 -28.00892 -51.08923 32532 ft 440 kts 211°
2026-04-27 00:41 -28.03790 -51.10093 32044 ft 445 kts 211°
2026-04-27 00:42 -28.06710 -51.11271 31552 ft 446 kts 211°
2026-04-27 00:42 -28.09634 -51.12454 31048 ft 451 kts 211°
2026-04-27 00:42 -28.12546 -51.13631 30556 ft 452 kts 211°
2026-04-27 00:42 -28.15510 -51.14827 30053 ft 445 kts 211°
2026-04-27 00:43 -28.18410 -51.16003 29565 ft 445 kts 211°
2026-04-27 00:43 -28.21291 -51.17168 29073 ft 441 kts 212°
2026-04-27 00:43 -28.24204 -51.18350 28597 ft 438 kts 212°
2026-04-27 00:43 -28.27113 -51.19530 28102 ft 437 kts 212°
2026-04-27 00:44 -28.29981 -51.20693 27608 ft 431 kts 212°
2026-04-27 00:44 -28.32865 -51.21864 27119 ft 427 kts 212°
2026-04-27 00:44 -28.35675 -51.23007 26652 ft 426 kts 212°
2026-04-27 00:44 -28.38517 -51.24160 26159 ft 420 kts 212°
2026-04-27 00:45 -28.41274 -51.25282 25691 ft 417 kts 212°
2026-04-27 00:45 -28.43979 -51.26383 25232 ft 413 kts 211°
2026-04-27 00:45 -28.46691 -51.27488 24772 ft 411 kts 212°
2026-04-27 00:45 -28.49376 -51.28581 24313 ft 407 kts 212°
2026-04-27 00:46 -28.52037 -51.29667 23869 ft 405 kts 211°
2026-04-27 00:46 -28.54723 -51.30763 23415 ft 405 kts 212°
2026-04-27 00:46 -28.57349 -51.31831 22968 ft 400 kts 210°
2026-04-27 00:46 -28.60344 -51.32323 22501 ft 427 kts 186°
2026-04-27 00:47 -28.63463 -51.31458 21949 ft 449 kts 162°
2026-04-27 00:47 -28.66292 -51.29827 21438 ft 448 kts 161°
2026-04-27 00:47 -28.69057 -51.28298 20940 ft 438 kts 162°
2026-04-27 00:47 -28.71858 -51.26785 20450 ft 429 kts 162°
2026-04-27 00:48 -28.74602 -51.25314 19971 ft 423 kts 162°
2026-04-27 00:48 -28.77273 -51.23882 19501 ft 418 kts 162°
2026-04-27 00:48 -28.79902 -51.22473 19035 ft 411 kts 163°
2026-04-27 00:48 -28.82478 -51.21093 18582 ft 407 kts 163°
2026-04-27 00:49 -28.85059 -51.19711 18124 ft 401 kts 162°
2026-04-27 00:49 -28.87588 -51.18356 17676 ft 396 kts 163°
2026-04-27 00:49 -28.90095 -51.17012 17236 ft 392 kts 162°
2026-04-27 00:49 -28.92592 -51.15672 16795 ft 387 kts 162°
2026-04-27 00:50 -28.95024 -51.14368 16366 ft 386 kts 162°
2026-04-27 00:50 -28.99819 -51.11792 15519 ft 379 kts 162°
2026-04-27 00:50 -29.02217 -51.10503 15101 ft 374 kts 161°
2026-04-27 00:51 -29.04579 -51.09234 15067 ft 372 kts 161°
2026-04-27 00:51 -29.06908 -51.07983 15070 ft 373 kts 162°
2026-04-27 00:51 -29.09298 -51.06698 15071 ft 375 kts 162°
2026-04-27 00:51 -29.11668 -51.05423 15063 ft 374 kts 162°
2026-04-27 00:52 -29.14068 -51.04132 15063 ft 375 kts 162°
2026-04-27 00:52 -29.16416 -51.02867 15060 ft 374 kts 162°
2026-04-27 00:52 -29.18797 -51.01585 15067 ft 374 kts 162°
2026-04-27 00:52 -29.21195 -51.00292 15066 ft 377 kts 162°
2026-04-27 00:53 -29.23579 -50.99006 15064 ft 376 kts 162°
2026-04-27 00:53 -29.25951 -50.97726 15059 ft 376 kts 162°
2026-04-27 00:53 -29.28356 -50.96428 15060 ft 375 kts 162°
2026-04-27 00:53 -29.30731 -50.95145 15059 ft 375 kts 161°
2026-04-27 00:54 -29.33132 -50.93848 15058 ft 377 kts 161°
2026-04-27 00:54 -29.35506 -50.92565 14885 ft 378 kts 161°
2026-04-27 00:54 -29.37877 -50.91280 14568 ft 374 kts 161°
2026-04-27 00:54 -29.40251 -50.89996 14165 ft 371 kts 161°
2026-04-27 00:55 -29.42593 -50.88726 13753 ft 366 kts 161°
2026-04-27 00:55 -29.44911 -50.87470 13337 ft 363 kts 161°
2026-04-27 00:55 -29.47222 -50.86217 12928 ft 361 kts 161°
2026-04-27 00:55 -29.49511 -50.84975 12522 ft 356 kts 160°
2026-04-27 00:56 -29.51805 -50.83730 12116 ft 354 kts 160°
2026-04-27 00:56 -29.54030 -50.82521 11719 ft 351 kts 160°
2026-04-27 00:56 -29.56213 -50.81334 11331 ft 343 kts 160°
2026-04-27 00:56 -29.58351 -50.80172 10954 ft 333 kts 160°
2026-04-27 00:57 -29.60443 -50.79033 10574 ft 323 kts 160°
2026-04-27 00:57 -29.62468 -50.77931 10221 ft 315 kts 160°
2026-04-27 00:57 -29.64445 -50.76856 9875 ft 306 kts 160°
2026-04-27 00:57 -29.66394 -50.75794 9530 ft 300 kts 160°
2026-04-27 00:58 -29.68325 -50.74743 9184 ft 298 kts 160°
2026-04-27 00:58 -29.70213 -50.73719 8854 ft 298 kts 162°
2026-04-27 00:58 -29.72270 -50.73345 8525 ft 280 kts 196°
2026-04-27 00:58 -29.74044 -50.74258 8190 ft 266 kts 223°
2026-04-27 00:59 -29.75468 -50.75658 7954 ft 264 kts 227°
2026-04-27 00:59 -29.76828 -50.77100 7933 ft 262 kts 228°
2026-04-27 00:59 -29.78168 -50.78572 7924 ft 264 kts 228°
2026-04-27 00:59 -29.79470 -50.80025 7910 ft 263 kts 229°
2026-04-27 01:00 -29.80786 -50.81507 7907 ft 263 kts 229°
2026-04-27 01:00 -29.82101 -50.82995 7909 ft 263 kts 229°
2026-04-27 01:00 -29.83402 -50.84469 7958 ft 262 kts 229°
2026-04-27 01:00 -29.84715 -50.85959 8000 ft 264 kts 230°
2026-04-27 01:01 -29.86025 -50.87447 8009 ft 261 kts 229°
2026-04-27 01:01 -29.87334 -50.88936 8006 ft 262 kts 230°
2026-04-27 01:01 -29.88633 -50.90413 8007 ft 264 kts 229°
2026-04-27 01:01 -29.89948 -50.91908 8016 ft 264 kts 228°
2026-04-27 01:02 -29.91553 -50.93008 8028 ft 274 kts 208°
2026-04-27 01:02 -29.93320 -50.93810 8013 ft 272 kts 208°
2026-04-27 01:02 -29.95017 -50.94568 8003 ft 242 kts 208°
2026-04-27 01:02 -29.96486 -50.95223 7959 ft 210 kts 209°
2026-04-27 01:03 -29.97785 -50.95805 7974 ft 190 kts 210°
2026-04-27 01:03 -29.98981 -50.96400 7988 ft 186 kts 225°
2026-04-27 01:03 -29.99603 -50.97554 7853 ft 164 kts 264°
2026-04-27 01:03 -29.99674 -50.98855 7522 ft 161 kts 269°
2026-04-27 01:04 -29.99697 -51.00116 6987 ft 161 kts 270°
2026-04-27 01:04 -29.99704 -51.01415 6399 ft 162 kts 271°
2026-04-27 01:04 -29.99700 -51.02653 6098 ft 145 kts 271°
2026-04-27 01:04 -29.99693 -51.03687 5949 ft 125 kts 272°
2026-04-27 01:05 -29.99674 -51.04764 5168 ft 146 kts 272°
2026-04-27 01:05 -29.99667 -51.05978 4232 ft 167 kts 270°
2026-04-27 01:05 -29.99666 -51.07341 3367 ft 171 kts 271°
2026-04-27 01:05 -29.99659 -51.08644 2798 ft 163 kts 270°
2026-04-27 01:06 -29.99652 -51.09998 1728 ft 180 kts 271°
2026-04-27 01:06 -29.99622 -51.11395 1097 ft 166 kts 274°
2026-04-27 01:06 -29.99545 -51.12680 702 ft 149 kts 270°
2026-04-27 01:06 -29.99545 -51.13810 408 ft 134 kts 274°
2026-04-27 01:07 -29.99501 -51.14841 181 ft 123 kts 272°
2026-04-27 01:07 -29.99485 -51.15809 52 ft 122 kts 272°
2026-04-27 01:07 -29.99462 -51.16688 21 ft 80 kts 272°
2026-04-27 01:07 -29.99458 -51.17164 19 ft 47 kts 271°
2026-04-27 01:08 -29.99451 -51.17440 18 ft 17 kts 268°
2026-04-27 01:08 -29.99451 -51.17575 18 ft 16 kts 270°
2026-04-27 01:08 -29.99450 -51.17648 18 ft 8 kts 277°
2026-04-27 01:08 -29.99416 -51.17697 18 ft 8 kts 338°
2026-04-27 01:09 -29.99375 -51.17701 18 ft 5 kts 15°
2026-04-27 01:09 -29.99336 -51.17695 18 ft 5 kts
2026-04-27 01:09 -29.99298 -51.17697 19 ft 5 kts 355°
2026-04-27 01:09 -29.99266 -51.17699 20 ft 1 kts 356°
2026-04-27 01:10 -29.99256 -51.17700 20 ft 0 kts 356°
2026-04-27 01:10 -29.99238 -51.17700 20 ft 3 kts
2026-04-27 01:10 -29.99216 -51.17699 21 ft 2 kts
2026-04-27 01:10 -29.99197 -51.17703 21 ft 3 kts 345°
2026-04-27 01:11 -29.99168 -51.17736 22 ft 8 kts 282°
2026-04-27 01:11 -29.99159 -51.17805 21 ft 8 kts 279°
2026-04-27 01:11 -29.99153 -51.17846 22 ft 2 kts 279°
2026-04-27 01:11 -29.99144 -51.17865 22 ft 2 kts 320°
2026-04-27 01:12 -29.99121 -51.17863 22 ft 4 kts 24°
2026-04-27 01:12 -29.99090 -51.17844 22 ft 4 kts 32°
2026-04-27 01:12 -29.99075 -51.17833 22 ft 0 kts 32°